Location: الشقيري
(17.1356°N, 42.8272°E)
Time: 20:01:59
(UTC+00:00)

Vanguard 1 - Visible Passes

Search period start: 22 April 2019 00:00
Search period end: 02 May 2019 00:00
Orbit: 652 x 3832 km, 34.3° (Epoch: 21 April)

Date Brightness Start Highest point End Pass type
(mag) Time Alt. Az. Time Alt. Az. Time Alt. Az.
22 Apr 11.5 00:55:13 42° SW 00:56:04 42° SW 01:03:57 10° SSE visible
22 Apr 13.0 15:08:39 10° WSW 15:25:20 77° NNW 15:49:25 10° ENE visible
22 Apr 13.4 17:34:39 10° W 17:55:45 50° N 18:16:56 10° ENE visible
22 Apr 12.8 20:04:46 10° WNW 20:27:33 51° NNE 20:30:46 49° NE visible
22 Apr 12.7 22:34:30 10° WNW 23:03:40 22° ESE 23:06:05 10° ESE visible
23 Apr 11.9 01:16:31 29° SW 01:16:37 29° SW 01:23:49 10° S visible
23 Apr 13.2 15:30:14 10° WSW 15:47:28 67° NNW 16:11:19 10° ENE visible
23 Apr 13.4 17:57:14 10° WNW 18:18:44 48° N 18:37:09 15° ENE visible
23 Apr 12.7 20:27:07 10° WNW 20:49:48 57° NNE 20:49:48 57° NNE visible
23 Apr 12.6 22:56:33 10° WNW 23:24:48 21° SE 23:27:00 10° SE visible
24 Apr 12.2 01:37:38 18° SW 01:37:38 18° SW 01:42:57 10° SSW visible
24 Apr 13.3 15:52:06 10° W 16:09:51 59° NNW 16:33:19 10° ENE visible
24 Apr 13.3 18:19:48 10° WNW 18:41:45 48° N 18:56:12 23° ENE visible
24 Apr 12.7 20:49:17 10° WNW 21:08:50 59° NNW 21:08:50 59° NNW visible
24 Apr 12.6 23:18:45 10° WNW 23:45:47 19° SSE 23:47:40 10° SE visible
25 Apr 12.6 01:58:36 10° SW 01:58:36 10° SW 01:59:00 10° SW visible
25 Apr 13.4 16:14:10 10° W 16:32:30 53° NNW 16:55:28 10° ENE visible
25 Apr 13.2 18:42:16 10° WNW 19:04:45 50° N 19:15:15 33° ENE visible
25 Apr 12.8 21:11:19 10° WNW 21:27:53 53° NW 21:27:53 53° NW visible
26 Apr 12.7 00:06:37 16° SSE 00:06:37 16° SSE 00:07:59 10° SSE visible
26 Apr 13.4 16:36:24 10° W 16:55:21 50° N 17:17:49 10° ENE visible
26 Apr 13.0 19:04:35 10° WNW 19:27:35 54° NNE 19:34:19 44° NE visible
26 Apr 13.0 21:33:18 10° WNW 21:46:57 44° NW 21:46:57 44° NW visible
27 Apr 12.8 00:27:18 12° S 00:27:18 12° S 00:27:55 10° S visible
27 Apr 13.4 16:58:42 10° WNW 17:18:21 48° N 17:40:19 10° ENE visible
27 Apr 12.8 19:26:44 10° WNW 19:50:13 59° NNE 19:53:23 56° NE visible
27 Apr 13.3 21:55:19 10° WNW 22:06:02 35° WNW 22:06:02 35° WNW visible
28 Apr 13.4 17:21:00 10° WNW 17:41:22 49° N 17:59:50 17° ENE visible
28 Apr 12.7 19:48:43 10° WNW 20:12:29 67° NNE 20:12:29 67° NNE visible
28 Apr 13.5 22:17:31 10° WNW 22:25:08 26° WNW 22:25:08 26° WNW visible
29 Apr 13.4 15:16:51 10° W 15:32:34 51° N 15:55:17 10° ENE visible
29 Apr 13.3 17:43:11 10° WNW 18:04:20 51° N 18:18:57 26° ENE visible
29 Apr 12.7 20:10:36 10° WNW 20:31:35 70° NNW 20:31:35 70° NNW visible
29 Apr 13.8 22:40:01 10° WNW 22:44:15 18° WNW 22:44:15 18° WNW visible
30 Apr 13.4 15:38:54 10° WNW 15:55:19 48° N 16:17:53 10° ENE visible
30 Apr 13.1 18:05:13 10° WNW 18:27:11 55° NNE 18:38:04 36° ENE visible
30 Apr 12.8 20:32:28 10° WNW 20:50:44 62° WNW 20:50:44 62° WNW visible
30 Apr 14.0 23:03:02 10° WNW 23:03:23 11° WNW 23:03:23 11° WNW visible
01 May 13.4 16:00:58 10° WNW 16:18:11 47° N 16:40:39 10° ENE visible
01 May 12.9 18:27:07 10° WNW 18:49:48 61° NNE 18:57:14 48° ENE visible
01 May 13.0 20:54:24 10° WNW 21:09:54 50° WNW 21:09:54 50° WNW visible
